Dax, France

5:29 AM CEST on August 21, 2017 (GMT +0200)
Seyresse Army

Weather History for LFBY - April, 2014

Change the Weather History Date:

Monday, April 21, 2014

  Actual Average (LFBZ) Record (LFBZ)
Temperature  
Mean Temperature 54 °F -  
Max Temperature 68 °F 63 °F 78 °F (1998)
Min Temperature 41 °F 50 °F 38 °F (2017)
Degree Days  
Heating Degree Days 10    
Growing Degree Days 4 (Base 50)    
Moisture  
Dew Point 47 °F    
Average Humidity 81    
Maximum Humidity 100    
Minimum Humidity 38    
Precipitation  
Precipitation 0.28 in - - ()
Sea Level Pressure  
Sea Level Pressure 29.65 in    
Wind  
Wind Speed 3 mph ()    
Max Wind Speed 8 mph    
Max Gust Speed -    
Averages and records for this station are not official NWS values.
T = Trace of Precipitation, MM = Missing Value Source: Averaged Metar Reports

Daily Weather History Graph

Daily Weather History Graph

Search for Another Location

Airport or City:

Trip Planner

Search our weather history database for the weather conditions in past years. The results will help you decide how hot, cold, wet, or windy it might be!

Date:

Astronomy

Apr. 21, 2014 Rise Set
Actual Time 7:12 AM CEST 8:54 PM CEST
Civil Twilight 6:41 AM CEST 9:25 PM CEST
Nautical Twilight 6:04 AM CEST 10:02 PM CEST
Astronomical Twilight 5:25 AM CEST 10:42 PM CEST
Moon 2:15 AM CEST 12:19 PM CEST
Length of Visible Light 14h 43m
Length of Day
13h 42m
Waning Gibbous, 60% of the Moon is Illuminated
Apr 21
Waning Gibbous
Apr 22
Last Quarter
Apr 29
New
May 7
First Quarter
May 14
Full

Hourly Weather History & Observations

Time (CEST) Temp. Windchill Dew Point Humidity Pressure Visibility Wind Dir Wind Speed Gust Speed Precip Events Conditions
12:00 AM 48.2 °F - 48.2 °F 100% 29.65 in - NE 1.2 mph - N/A   Unknown
1:00 AM 46 °F - 45 °F 95% 29.68 in - East 2.3 mph - -  
1:00 AM 46.4 °F - 44.6 °F 93% 29.65 in - East 2.3 mph - N/A   Unknown
2:00 AM 45 °F - 44 °F 94% 29.67 in - ESE 2.3 mph - -  
2:00 AM 44.6 °F - 44.6 °F 100% 29.65 in - ESE 2.3 mph - N/A   Unknown
3:00 AM 45 °F - 45 °F 99% 29.66 in - East 2.3 mph - -  
3:00 AM 46.4 °F - 44.6 °F 93% 29.65 in - ESE 2.3 mph - N/A   Unknown
4:00 AM 44 °F - 43 °F 96% 29.65 in - East 3.5 mph - -  
4:00 AM 44.6 °F - 42.8 °F 93% 29.62 in - Variable 2.3 mph - N/A   Unknown
5:00 AM 44 °F - 44 °F 97% 29.64 in - East 3.5 mph - -  
5:00 AM 42.8 °F 41.1 °F 42.8 °F 100% 29.62 in - East 3.5 mph - N/A   Unknown
6:00 AM 42 °F - 42 °F 100% 29.64 in - East 1.2 mph - -  
6:00 AM 42.8 °F - 42.8 °F 100% 29.62 in - East 1.2 mph - N/A   Unknown
7:00 AM 42 °F - 42 °F 98% 29.63 in - ESE 2.3 mph - -  
7:00 AM 41.0 °F - 41.0 °F 100% 29.62 in - East 2.3 mph - N/A   Unknown
8:00 AM 43 °F - 43 °F 98% 29.65 in - East 2.3 mph - -  
8:00 AM 42.8 °F - 42.8 °F 100% 29.62 in - Variable 1.2 mph - N/A   Unknown
9:00 AM 44 °F - 44 °F 100% 29.66 in - NE 3.5 mph - -  
9:00 AM 44.6 °F 43.1 °F 44.6 °F 100% 29.65 in - NE 3.5 mph - N/A   Unknown
10:00 AM 46 °F - 46 °F 99% 29.66 in - North 2.3 mph - -  
10:00 AM 46.4 °F 45.2 °F 46.4 °F 100% 29.65 in - Variable 3.5 mph - N/A   Unknown
11:00 AM 50 °F - 49 °F 96% 29.66 in - ENE 4.6 mph - -  
11:00 AM 50.0 °F - 48.2 °F 94% 29.65 in - ENE 4.6 mph - N/A   Unknown
12:00 PM 54 °F - 50 °F 81% 29.66 in - ENE 5.8 mph - -  
12:00 PM 53.6 °F - 50.0 °F 88% 29.65 in - ENE 5.8 mph - N/A   Unknown
1:00 PM 58 °F - 52 °F 74% 29.65 in - NE 5.8 mph - -  
1:00 PM 59.0 °F - 51.8 °F 77% 29.65 in - NE 5.8 mph - N/A   Unknown
2:00 PM 62 °F - 51 °F 58% 29.65 in - ENE 6.9 mph - -  
2:00 PM 62.6 °F - 51.8 °F 68% 29.62 in - ENE 6.9 mph - N/A   Unknown
3:00 PM 64 °F - 49 °F 48% 29.63 in - NE 6.9 mph - -  
3:00 PM 64.4 °F - 46.4 °F 52% 29.62 in - ENE 6.9 mph - N/A   Unknown
4:00 PM 66 °F - 48 °F 41% 29.63 in - NNE 5.8 mph - -  
4:00 PM 66.2 °F - 48.2 °F 52% 29.62 in - NNE 4.6 mph - N/A   Unknown
5:00 PM 67 °F - 49 °F 41% 29.62 in - ENE 6.9 mph - -  
5:00 PM 68.0 °F - 48.2 °F 49% 29.59 in - East 5.8 mph - N/A   Unknown
6:00 PM 68 °F - 48 °F 38% 29.63 in - NE 4.6 mph - -  
6:00 PM 68.0 °F - 48.2 °F 49% 29.62 in - ENE 4.6 mph - N/A   Unknown
7:00 PM 66 °F - 49 °F 43% 29.64 in - ESE 5.8 mph - -  
7:00 PM 66.2 °F - 48.2 °F 52% 29.62 in - ESE 5.8 mph - N/A   Unknown
8:00 PM 62 °F - 50 °F 56% 29.66 in - West 8.1 mph - -  
8:00 PM 62.6 °F - 50.0 °F 63% 29.65 in - West 8.1 mph - N/A   Unknown
9:00 PM 58 °F - 52 °F 73% 29.71 in - SW 5.8 mph - -  
9:00 PM 59.0 °F - 51.8 °F 77% 29.68 in - Variable 5.8 mph - N/A   Unknown
10:00 PM 55 °F - 52 °F 86% 29.75 in - West 8.1 mph - -  
10:00 PM 55.4 °F - 51.8 °F 88% 29.74 in - West 8.1 mph - N/A   Unknown
11:00 PM 54 °F - 53 °F 95% 29.76 in - West 4.6 mph - -  
11:00 PM 55.4 °F - 53.6 °F 94% 29.74 in - West 4.6 mph - N/A   Unknown